This is the latest recevied weather packets stored in our database for station/object OK4ZAW-16. If no packets are shown the sender has not sent any weather packets the latest 1 day(s).
| Time | Temp. | Humidity | Pressure | Rain* | Wind** | Luminosity | Snow |
|---|---|---|---|---|---|---|---|
| 1777986776 | 18.89° C | 68% | 1010.2 hPa | - | 1.34 m/s, 0° | 150 W/m² | - |
| 1777986358 | 18.89° C | 67% | 1010.3 hPa | - | 0.89 m/s, 0° | 150 W/m² | - |
| 1777985940 | 18.89° C | 68% | 1010.4 hPa | - | 0.89 m/s, 0° | 150 W/m² | - |
| 1777985522 | 18.89° C | 67% | 1010.4 hPa | - | 0.89 m/s, 0° | 150 W/m² | - |
| 1777985105 | 18.33° C | 69% | 1010.4 hPa | - | 0.89 m/s, 0° | 150 W/m² | - |
| 1777984687 | 18.33° C | 67% | 1010.6 hPa | - | 1.34 m/s, 0° | 150 W/m² | - |
| 1777984269 | 18.33° C | 68% | 1010.5 hPa | - | 1.34 m/s, 0° | 150 W/m² | - |
| 1777983852 | 18.33° C | 71% | 1010.6 hPa | - | 1.34 m/s, 0° | 150 W/m² | - |
| 1777983434 | 18.33° C | 71% | 1010.5 hPa | - | 0.89 m/s, 0° | 150 W/m² | - |
| 1777983016 | 18.33° C | 69% | 1010.7 hPa | - | 1.34 m/s, 0° | 150 W/m² | - |
| 1777982599 | 18.33° C | 70% | 1010.7 hPa | - | 1.34 m/s, 0° | 150 W/m² | - |
| 1777981764 | 17.78° C | 73% | 1010.5 hPa | - | 1.34 m/s, 0° | 150 W/m² | - |
| 1777981346 | 17.78° C | 74% | 1010.6 hPa | - | 1.34 m/s, 0° | 150 W/m² | - |
| 1777980928 | 17.78° C | 70% | 1010.6 hPa | - | 1.34 m/s, 0° | 150 W/m² | - |
| 1777980511 | 17.78° C | 73% | 1010.6 hPa | - | 1.34 m/s, 0° | 150 W/m² | - |
| 1777980093 | 17.78° C | 77% | 1010.7 hPa | - | 1.34 m/s, 0° | 150 W/m² | - |
| 1777979676 | 17.22° C | 72% | 1010.8 hPa | - | 0.89 m/s, 0° | 150 W/m² | - |
| 1777979258 | 17.22° C | 70% | 1010.8 hPa | - | 1.34 m/s, 0° | 150 W/m² | - |
| 1777978841 | 17.78° C | 66% | 1010.8 hPa | - | 1.34 m/s, 0° | 150 W/m² | - |
| 1777978423 | 17.78° C | 65% | 1010.8 hPa | - | 1.34 m/s, 0° | 150 W/m² | - |
| 1777978006 | 17.78° C | 63% | 1010.8 hPa | - | 0.89 m/s, 0° | 150 W/m² | - |
| 1777977588 | 17.78° C | 65% | 1010.8 hPa | - | 1.34 m/s, 0° | 150 W/m² | - |
| 1777977170 | 17.78° C | 62% | 1010.9 hPa | - | 1.34 m/s, 0° | 150 W/m² | - |
| 1777976753 | 17.78° C | 65% | 1010.9 hPa | - | 0.89 m/s, 0° | 150 W/m² | - |
| 1777976335 | 17.78° C | 64% | 1010.8 hPa | - | 0.89 m/s, 0° | 150 W/m² | - |
* Rain since midnight (hover to see other rain measurements)
** Current wind speed in m/s (hover to see current wind gust speed)